Location: Street
(51.1247°N, 2.7429°W)
Time: 10:39:49
(UTC+00:00)

Tiros 1 - Pass Details

Date: 03 December 2020
Orbit: 630 x 663 km, 48.4° (Epoch: 21 January)

Event Time Altitude Azimuth Distance (km) Brightness Sun altitude
Rises 13:29:17 0° 209° (SSW) 2,983 12.4 14.1°
Reaches altitude 10° 13:32:03 10° 194° (SSW) 2,075 12.4 14.0°
Maximum altitude 13:35:41 22° 145° (SE) 1,456 9.5 13.8°
Drops below altitude 10° 13:39:18 10° 96° (E) 2,081 9.6 13.5°
Sets 13:42:06 0° 81° (E) 2,993 10.2 13.4°
